Starlink 11197

operational
NORAD ID: 60186 Int'l Des: 2024-124 Owner: SPXS Country: US Constellation: starlink
LEOCIRCULAR

About Starlink 11197

Description loading...

Live Position

Loading 3D Globe...

Upcoming Passes

Altitude History

Altitude vs Time

uPlot chart will show altitude changes over time

Two-Line Element Set

1 60186U 24124D 25258.12875540 -.00001076 00000-0 -40203-5 0 9998
2 60186 53.1590 306.4596 0001271 80.3930 279.7231 15.69713077 68969
Epoch: Sep 15, 2025 • Age: 12 hours

Current Status

Altitude 361.0 km
Velocity 7.70 km/s
Sub-Earth Point 31.58°N, 104.02°E
Launch Date Jul 3, 2024
Age 1.2 years
Type internet

Technical Details

Classification Payload
Mass 960.00 kg
Dry Mass 910.00 kg
Total Mass 960.00 kg
Length 0.30 m
Diameter 4.10 m
Span 29.00 m
Shape Box + pan
Manufacturer SPXS
Bus Type Starlink V2MD
Phase Status In Orbit
Owner/State SPXS/US

Large Constellations

Loading constellations...